Theta_e
305 306 306 306 306 305 305 305 299 309 313 296 295 290 292 296 296 298 290 289 291 291 291 291 291 290 293 298 298 294 296 297 291 293 300 301 298 295 297 291 290 296 294 295
305 306 306 306 306 305 305 300 301 310 309 288 289 293 294 296 294 294 293 290 293 295 293 289 293 294 300 300 299 297 300 294 288 289 295 298 295 296 298 300 300 294 292 294
305 306 306 306 306 305 307 300 294 302 303 299 292 290 292 292 297 295 296 295 296 295 293 296 292 293 299 300 301 301 302 299 294 289 292 297 293 295 298 299 294 295 296 299
304 306 306 306 305 305 307 299 296 295 291 294 294 295 293 290 290 295 296 293 294 295 288 287 291 296 298 299 303 303 302 296 297 297 298 297 295 294 295 296 297 295 298 300
305 306 306 306 306 305 304 296 293 295 291 296 295 294 292 291 293 293 291 290 295 297 293 294 294 297 298 297 302 302 304 296 298 294 297 297 294 295 295 296 296 296 300 304
304 305 306 306 306 306 301 300 301 295 294 297 295 293 293 294 296 295 295 295 298 296 297 300 303 305 303 303 299 299 301 299 296 291 295 295 291 294 295 297 299 300 297 306
304 305 306 306 306 306 305 301 299 293 292 295 294 296 296 295 296 292 296 299 296 299 305 305 305 303 302 303 302 304 300 301 299 292 294 286 300 303 300 298 300 303 307 311
304 305 305 306 306 306 304 305 301 295 290 294 297 297 296 300 300 296 297 298 300 304 306 301 295 295 296 297 300 302 304 302 299 293 292 298 301 304 302 301 301 307 308 312
304 304 305 306 307 307 307 307 308 298 293 296 298 297 298 295 295 297 298 302 306 305 306 300 293 291 294 292 296 304 307 306 301 298 291 288 301 306 309 309 299 310 312 311
303 304 305 306 306 308 306 306 309 298 293 300 300 298 297 300 297 296 298 300 299 304 301 297 295 293 298 293 293 296 300 302 297 296 295 298 305 306 309 297 303 313 314 313
303 303 305 305 306 307 307 306 310 300 295 299 302 303 301 301 300 294 298 299 298 298 293 293 296 295 297 297 298 298 297 296 297 299 295 292 305 307 303 309 316 316 315 314
303 303 304 305 306 307 307 304 309 305 296 299 305 306 308 306 305 300 301 298 296 298 294 294 298 296 299 298 294 303 296 300 299 298 295 301 306 307 311 316 314 314 315 315
302 303 304 305 306 306 306 304 305 302 297 301 303 304 308 311 310 310 298 302 302 300 302 298 299 295 298 296 297 300 302 305 300 302 299 302 306 310 315 316 314 315 316 315
303 303 304 304 305 306 306 303 307 301 299 294 300 309 307 311 313 310 309 305 308 304 302 297 296 294 300 294 298 297 299 304 300 297 301 303 304 307 310 313 314 313 314 312
303 304 304 305 305 306 306 307 308 308 302 295 298 306 308 311 311 309 309 308 307 301 296 293 291 296 296 297 296 291 298 300 300 295 302 301 300 305 306 306 307 307 306 302
303 304 304 304 304 305 306 303 310 311 309 297 295 306 306 308 310 308 308 309 306 303 297 294 296 300 296 291 289 293 297 302 303 298 302 302 302 302 302 300 300 300 299 300
303 303 304 304 305 305 304 302 306 306 310 298 294 299 306 307 308 310 308 307 305 303 299 296 295 296 296 291 287 292 295 297 298 301 301 297 298 294 296 296 297 299 299 299
303 303 304 305 305 305 305 310 306 308 305 304 296 298 301 307 302 302 306 302 304 301 299 300 296 296 294 287 292 295 295 295 294 294 295 295 295 296 295 296 296 295 294 295
303 303 304 308 307 305 307 307 307 311 306 299 300 295 294 305 303 305 305 305 297 303 296 296 298 291 284 289 293 296 296 294 295 297 297 297 295 296 298 299 298 296 296 296
303 305 303 301 306 305 307 306 304 303 305 304 298 303 296 301 301 303 300 303 297 294 296 300 293 288 291 294 296 297 299 299 300 296 294 295 294 295 295 296 297 296 296 296
306 301 300 304 307 307 304 298 297 300 296 301 303 300 296 305 298 298 301 298 299 293 294 295 291 289 292 296 296 298 298 299 298 297 297 297 296 294 294 293 293 293 294 293
299 298 301 302 303 300 295 295 298 295 295 300 298 299 300 303 305 300 302 295 298 289 299 293 288 292 294 294 295 295 296 295 295 295 295 294 294 294 294 294 293 293 293 292
303 299 295 297 297 288 289 287 293 294 298 301 301 299 301 304 303 300 299 291 293 301 294 289 291 294 295 295 294 295 295 295 294 293 293 293 292 292 292 291 292 292 291 291
296 292 287 290 291 293 295 297 297 299 302 301 300 299 300 302 299 300 292 296 297 290 288 288 293 294 294 295 296 295 294 294 294 292 292 291 290 290 290 290 291 291 289 289
292 292 286 290 298 300 302 303 302 302 303 300 297 299 299 299 296 298 296 290 288 290 289 295 297 297 296 295 296 294 294 294 293 293 291 290 290 290 289 290 290 289 287 286
294 291 290 296 296 297 299 300 301 303 303 302 300 295 293 293 296 291 290 289 286 292 296 299 299 298 298 297 296 295 294 294 293 293 291 291 290 289 289 288 287 287 287 285
292 292 297 297 297 297 302 303 305 305 300 296 297 290 290 298 292 288 293 291 296 299 299 300 300 299 298 298 296 295 294 294 294 293 292 291 290 291 289 286 285 287 286 286
Wind_Speed
25 26 28 30 31 32 11 5 4 8 8 7 3 8 18 13 13 10 3 3 5 3 5 2 4 13 6 15 15 16 12 11 21 33 21 21 19 22 14 7 6 4 10 10
23 25 27 29 31 28 9 8 4 4 9 5 8 12 11 17 16 13 2 4 5 3 3 1 5 4 5 16 13 6 7 12 19 23 16 21 22 23 12 3 11 12 10 11
23 23 26 27 29 31 11 6 6 4 4 3 13 12 10 19 15 9 11 5 6 5 4 3 4 5 7 16 11 11 15 18 23 20 32 27 26 25 16 13 8 10 15 18
23 23 24 25 28 32 10 6 5 5 9 10 16 14 14 20 12 5 9 6 18 12 2 2 3 6 12 5 9 9 5 18 8 7 25 25 21 23 22 13 8 14 15 16
22 22 22 23 25 32 7 6 6 5 7 14 17 15 16 20 19 7 11 10 19 9 8 9 17 14 7 3 5 3 1 13 6 17 21 22 20 19 23 14 9 1 11 15
21 21 21 21 22 20 6 4 5 3 11 12 13 14 20 21 21 7 12 16 9 9 12 9 7 8 6 7 5 5 4 9 9 15 20 21 19 21 23 19 12 9 11 14
19 20 20 19 18 17 5 3 3 3 8 10 13 20 20 24 22 12 10 15 10 8 11 2 4 8 5 5 4 6 5 12 6 16 19 15 11 4 14 17 14 8 9 17
18 18 18 18 16 17 8 3 3 3 9 12 13 21 20 21 21 15 10 17 7 15 7 4 12 4 2 3 5 4 7 6 8 12 12 14 12 9 9 13 11 9 11 16
18 18 19 18 16 15 9 3 2 2 6 5 14 16 17 12 17 17 18 20 8 12 2 3 3 2 7 1 3 10 7 12 5 14 11 11 13 8 2 3 10 11 16 18
16 17 18 18 17 16 10 2 3 2 5 8 13 9 11 11 10 9 10 17 11 14 7 4 4 4 3 0 3 4 8 10 11 8 5 8 8 4 2 10 7 14 17 20
16 17 18 17 17 15 9 5 1 2 4 12 7 10 13 12 11 8 15 7 6 5 8 5 4 4 4 2 6 5 6 1 6 4 7 8 10 3 4 5 10 16 18 17
16 17 17 17 17 15 11 5 2 1 4 9 17 17 16 12 12 10 9 2 4 3 3 2 4 2 3 3 3 6 3 7 4 8 5 3 5 4 2 3 12 15 18 19
16 17 16 16 16 15 9 5 5 3 5 8 7 2 9 6 6 5 5 3 3 3 2 2 3 5 4 2 4 1 4 7 4 5 10 10 9 6 6 11 13 16 17 22
17 17 17 17 16 15 11 4 3 2 4 5 2 5 10 5 8 5 11 11 4 2 2 2 3 2 6 4 4 5 6 8 7 11 11 14 14 12 12 14 17 17 19 21
17 17 17 17 17 15 10 6 4 5 6 6 8 17 4 10 9 5 4 5 8 3 2 3 4 3 3 2 3 5 8 6 4 5 11 14 11 13 14 16 17 18 22 20
18 19 18 18 16 13 7 5 5 5 3 4 5 6 8 14 9 3 2 3 2 3 3 3 3 3 4 3 4 9 10 12 6 11 15 18 18 18 16 19 18 18 17 16
19 20 19 19 16 5 6 7 6 1 3 3 6 4 4 12 6 1 2 1 3 3 2 3 3 5 5 4 4 6 10 14 14 15 17 19 14 13 16 18 18 17 16 15
20 21 21 18 12 3 7 4 6 4 5 4 5 4 4 7 5 4 4 3 0 5 3 3 5 4 4 5 7 9 11 15 17 17 13 15 13 14 13 13 12 15 13 13
21 22 20 5 5 4 3 6 5 5 5 5 3 5 4 6 5 3 2 1 3 2 4 4 5 5 7 5 6 11 10 10 13 14 13 13 15 15 13 13 12 12 11 10
21 8 4 4 3 7 5 5 5 5 5 5 5 0 4 5 5 3 5 2 2 2 4 3 4 3 5 9 8 8 11 11 12 13 11 10 11 11 11 11 9 8 7 6
1 3 2 6 4 4 4 3 4 3 5 4 1 3 7 2 5 4 3 2 2 1 3 0 3 3 3 6 8 9 10 11 13 12 11 10 9 8 8 7 6 6 5 6
4 4 5 4 4 4 5 4 3 5 1 4 3 4 4 2 3 4 1 3 2 3 2 2 4 5 9 9 10 10 10 12 13 11 11 10 9 7 6 6 5 5 5 5
2 3 3 3 3 2 6 5 3 3 3 2 1 2 2 2 4 4 2 3 2 1 2 4 4 10 10 10 9 10 10 11 11 10 9 8 8 7 6 5 4 3 3 4
3 3 4 5 5 5 2 1 2 5 1 2 3 2 2 1 4 2 4 3 3 3 2 4 8 12 11 9 8 8 9 9 9 9 7 7 7 7 6 6 5 3 4 5
3 3 5 6 2 2 2 0 2 2 1 2 3 3 3 3 4 2 2 4 2 3 3 5 11 14 13 11 9 9 8 7 7 6 6 6 6 5 6 6 6 5 4 4
3 4 5 4 4 5 5 5 2 4 3 3 4 3 3 3 3 2 1 2 2 3 3 5 12 14 13 11 10 9 9 8 7 7 7 6 6 5 7 6 5 5 5 4
4 5 6 7 4 5 2 2 1 3 4 1 3 3 2 1 1 1 2 0 4 4 4 8 12 12 12 11 10 9 9 8 7 7 7 7 6 3 5 6 4 4 3 2
Wind_Direction
349 346 346 342 342 346 332 310 310 20 325 22 317 329 320 313 320 349 180 275 266 267 319 341 104 128 188 178 196 205 174 200 172 179 185 179 188 182 197 182 154 134 168 113
349 346 347 342 341 352 317 335 314 50 1 23 345 320 309 357 341 332 341 235 244 278 273 311 82 174 211 177 184 217 164 193 148 159 175 184 191 184 197 242 153 175 153 136
350 347 347 343 343 341 323 332 337 15 344 43 341 324 332 345 342 322 332 306 306 253 278 182 132 213 170 178 170 231 249 162 159 173 182 174 182 181 185 187 177 172 137 129
351 349 349 347 345 338 315 16 30 31 322 343 336 343 328 337 347 331 333 322 342 342 114 237 198 137 115 176 236 232 250 163 189 175 157 173 173 183 185 196 129 127 136 134
349 349 349 351 349 331 47 7 351 348 283 330 337 360 344 342 347 323 320 325 333 35 28 10 138 150 167 158 204 302 233 165 122 126 146 162 177 178 197 212 206 154 139 106
346 349 351 352 353 345 24 355 315 293 284 346 358 348 341 339 354 324 319 318 327 23 7 350 7 35 28 56 359 321 201 159 170 141 151 150 168 178 180 189 190 176 176 134
343 347 351 350 354 352 341 327 298 306 318 345 347 341 347 347 358 338 328 2 360 347 320 14 34 37 309 293 184 242 199 173 149 148 162 159 87 106 190 188 192 193 83 137
340 346 348 348 352 339 337 316 311 320 309 322 329 345 341 344 354 359 356 7 314 303 287 159 143 197 217 123 255 356 259 137 156 150 157 109 123 145 177 166 178 198 147 131
340 341 343 344 346 338 329 325 301 288 306 334 335 323 350 348 344 351 354 4 329 349 266 260 126 125 115 258 184 217 156 176 139 156 154 154 112 124 100 219 181 191 143 135
335 336 338 340 341 341 323 265 267 282 287 282 332 344 337 331 335 322 314 351 340 357 347 35 22 77 357 21 84 72 122 136 144 153 129 89 68 10 217 205 93 152 139 151
330 333 334 336 335 340 336 308 318 298 281 294 284 301 304 324 345 332 334 330 352 334 15 357 3 32 49 60 37 358 41 129 127 157 136 116 358 212 295 15 160 138 143 144
325 329 331 331 333 336 337 305 349 182 243 286 307 283 273 279 300 311 312 318 281 310 317 305 298 45 345 235 86 25 45 22 33 9 69 35 25 8 7 245 139 141 126 125
320 323 326 323 328 330 333 297 318 261 252 276 252 352 354 297 283 276 276 83 267 292 321 301 293 66 339 1 57 247 66 7 79 175 55 56 47 58 126 124 117 114 132 137
312 318 322 319 325 326 316 276 320 252 275 278 340 297 334 344 328 294 220 280 264 224 320 339 348 55 353 30 25 47 355 312 80 104 117 95 58 63 82 101 113 119 124 122
307 311 317 319 321 321 301 254 226 246 318 316 308 300 26 348 359 10 180 229 12 19 22 25 21 23 4 27 54 23 338 342 342 53 71 88 87 85 99 104 108 107 111 106
305 309 312 314 316 325 282 218 163 215 269 287 299 352 300 347 356 28 53 268 338 67 16 8 29 329 323 70 70 344 32 57 62 95 88 90 81 77 78 91 91 92 100 97
304 306 310 309 306 291 266 350 49 163 267 262 290 283 18 342 304 46 22 23 48 21 66 30 7 25 40 42 65 358 45 68 65 95 106 88 73 88 84 84 86 91 91 91
304 306 306 302 294 206 255 154 194 230 265 243 277 303 304 19 338 335 27 360 264 43 54 3 11 23 44 62 52 60 68 71 64 64 67 90 101 94 83 87 86 83 85 90
305 304 298 245 221 215 82 323 240 209 286 299 269 307 339 346 347 301 280 305 76 65 63 38 6 17 40 340 29 72 81 91 101 86 80 80 77 88 94 99 98 99 106 110
303 280 235 205 94 352 267 186 202 205 189 221 268 30 297 321 353 326 309 7 50 86 71 111 57 61 30 23 68 74 101 106 107 103 93 90 87 81 76 74 78 76 78 89
281 320 298 352 320 236 220 234 231 169 223 193 299 316 318 105 325 345 11 321 343 173 87 161 107 85 94 98 85 79 81 83 81 84 77 78 81 84 91 80 74 74 59 54
343 294 282 274 239 224 243 216 178 225 292 159 279 11 328 333 291 269 26 304 250 76 120 118 103 120 129 116 97 86 83 84 80 74 80 77 69 69 77 70 60 49 42 28
236 216 239 247 178 236 222 193 201 212 167 164 254 306 328 226 244 257 268 264 55 237 175 76 84 140 134 127 119 105 99 96 91 85 78 74 76 63 55 71 42 40 36 20
246 237 242 230 184 231 242 290 6 76 244 251 295 263 273 331 253 268 254 82 246 211 122 82 148 152 140 134 123 119 104 96 94 91 87 80 71 72 64 53 42 16 17 20
230 229 243 222 267 216 160 42 195 135 44 281 252 237 253 230 260 241 286 211 175 22 95 116 143 146 146 144 135 124 121 113 102 96 86 81 74 72 71 53 44 54 70 73
231 233 261 221 239 205 183 204 183 159 212 184 232 245 235 212 295 263 303 356 39 61 71 122 137 146 146 143 138 130 123 115 103 91 89 90 78 77 94 83 64 69 83 71
221 227 230 269 287 265 185 236 144 149 205 210 249 243 62 173 264 253 36 236 46 45 105 136 140 145 144 141 133 130 124 112 99 90 79 75 64 86 107 91 88 91 81 72